Regional Weather Roundup
Issued by NWS

Home | Current Version | Previous Version | Graphics & Text | Print | Product List | Glossary On
Versions: 1 2 3 4 5 6 7 8 9 10 11 12 13 14 15 16 17 18 19 20 21 22 23 24 25 26 27
000
ASUS45 KTFX 230310
RWRMT
MONTANA REGIONAL WEATHER ROUNDUP
NATIONAL WEATHER SERVICE GREAT FALLS MT
900 PM MDT FRI SEP 22 2017

NOTE: "FAIR" INDICATES FEW OR NO CLOUDS BELOW 12000 FEET WITH NO
SIGNIFICANT WEATHER AND/OR OBSTRUCTIONS TO VISIBILITY.

MTZ001>007-043-230400-
WEST OF THE DIVIDE

CITY           SKY/WX    TMP DP  RH WIND       PRES   REMARKS
ANACONDA         N/A     34  28  80 E3        30.02S
DEER LODGE       N/A     36  30  80 NW7       30.04S WCI  30
EUREKA           N/A     48  34  57 CALM      30.03S
HAMILTON         N/A     43  34  70 CALM      30.03S
LIBBY            N/A     46  37  71 CALM      30.02R
$$

MTZ008-052>055-230400-
SOUTHWEST MONTANA

CITY           SKY/WX    TMP DP  RH WIND       PRES   REMARKS
TWIN BRIDGES     N/A     37  31  79 N1        29.99
$$

MTZ009-010-012-014-046-048-049-054-230400-
EAST SLOPES AND CENTRAL MONTANA

CITY           SKY/WX    TMP DP  RH WIND       PRES   REMARKS
BOWMANS CRNR   CLOUDY    32  32  99 N6        30.05S WCI  26
FAIRFIELD      CLOUDY    33  32  96 MISG      30.07F FOG
POWER          MOCLDY    34  34  98 W5        30.07S
RAYNESFORD     LGT RAIN  37  37  98 CALM      30.07R
ULM            DRIZZLE   35  36 100 NW6       30.08S WCI  30
$$

MTZ011-013-016-021-045-047-050-051-230400-
NORTH CENTRAL MONTANA

CITY           SKY/WX    TMP DP  RH WIND       PRES   REMARKS
CHINOOK          N/A     45  37  76 CALM      30.09R
DENTON           N/A     39  38  95 NE3       30.05S
GEYSER         MOCLDY    37  37 100 NE6       30.06F WCI  32
JUDITH GAP     CLOUDY    36  34  94 NW6       30.05R WCI  31
WINIFRED       CLOUDY    40  37  89 E5        30.08R
$$

MTZ017>020-022>027-061-062-230400-
NORTHEAST MONTANA

CITY           SKY/WX    TMP DP  RH WIND       PRES   REMARKS
$$

MTZ028>42-056>058-230400-
SOUTHCENTRAL AND SOUTHEAST MONTANA

CITY           SKY/WX    TMP DP  RH WIND       PRES   REMARKS
BIG TIMBER     CLOUDY    34  34 100 NE7       30.09R FOG     WCI  28
HARLOWTON      CLOUDY    35  35  97 MISG      30.06R
LAUREL           N/A     41  39  93 NE9       30.08R
$$

REGIONAL REPORTS...DAKOTAS

CITY           SKY/WX    TMP DP  RH WIND       PRES   REMARKS
$$

REGIONAL REPORTS...WYOMING/IDAHO/WASHINGTON

CITY           SKY/WX    TMP DP  RH WIND       PRES   REMARKS
CODY           FLURRIES  36  34  93 NE6       30.04R WCI  31
$$

REGIONAL REPORTS...ALBERTA

CITY           SKY/WX    TMP DP  RH WIND       PRES   REMARKS
EDMONTON       CLOUDY    41  39  93 E5        30.08S
CALGARY        CLOUDY    39  34  81 SE7       30.06S
LETHBRIDGE     MOCLDY    41  36  81 S5        30.08S
MEDICINE HAT   MOCLDY    45  37  76 N5        30.08F
$$

REGIONAL REPORTS...SASKATCHEWAN

CITY           SKY/WX    TMP DP  RH WIND       PRES   REMARKS
SWIFT CURRENT    N/A     41  34  75 CALM      30.07R
REGINA         CLOUDY    43  41  93 NW6       30.07S
SASKATOON      CLOUDY    43  39  87 N3        30.09S
$$




USA.gov is the U.S. government's official web portal to all federal, state and local government web resources and services.